Temperature
18 18 18 18 18 18 18 18 18 18 18 18 18 18 18 18 18 18 18 18 18 18 18 18 18 18 18 18 18 18 17 17 17 17 17 17 17 16 16 16 16 16 16
19 19 18 18 18 18 18 18 18 18 18 18 18 18 18 18 18 18 18 18 18 18 18 18 18 18 18 18 18 18 17 17 17 17 17 17 17 17 16 16 16 16 16
19 19 19 19 18 18 18 18 18 18 18 18 18 18 18 18 18 18 18 18 18 18 18 18 18 18 18 18 18 18 17 17 17 17 17 17 17 17 17 16 16 16 16
19 19 19 19 18 18 18 18 18 18 18 18 18 18 18 18 18 18 18 18 18 18 18 18 18 18 18 18 18 18 17 17 17 17 17 17 17 17 16 16 16 16 16
19 19 19 19 18 18 18 18 18 18 18 18 18 18 18 18 19 18 19 19 18 18 18 18 18 18 18 18 17 17 17 17 17 17 17 17 17 17 16 16 16 16 16
19 19 19 19 19 19 18 18 18 18 18 18 18 19 19 19 19 19 19 19 19 18 18 18 18 18 18 18 17 17 17 17 17 17 17 17 17 17 17 16 16 16 16
19 19 19 19 19 19 19 19 18 18 18 18 18 19 19 19 19 19 19 19 19 18 18 18 18 18 18 18 18 18 17 17 17 17 17 17 17 17 17 17 16 16 16
19 19 19 19 19 19 19 18 18 18 18 18 18 18 18 19 19 19 19 19 19 18 18 18 18 18 18 18 18 18 17 17 17 17 17 17 17 17 17 17 16 16 16
19 19 19 19 19 19 19 19 19 18 18 18 18 18 18 18 18 18 18 18 18 18 18 18 18 18 18 18 18 18 18 17 17 17 17 17 17 17 17 17 17 16 16
19 19 19 19 19 19 19 19 19 18 18 18 18 18 18 18 18 18 18 18 18 18 18 18 18 18 18 18 18 18 18 17 17 17 17 17 17 17 17 16 16 16 16
19 19 19 19 19 19 19 19 19 18 18 18 18 18 18 18 18 18 18 18 18 18 18 18 18 18 18 18 18 18 18 17 17 17 17 17 17 16 16 16 16 16 16
19 19 19 19 19 19 19 19 18 18 18 18 18 18 18 18 18 18 18 18 18 18 18 18 18 18 18 18 18 18 18 17 17 17 17 17 17 17 17 16 16 16 16
19 19 19 19 19 19 19 19 18 18 18 18 18 18 18 18 18 18 18 18 18 18 18 18 18 18 18 18 18 18 18 17 17 17 17 17 17 17 17 17 16 16 16
19 19 19 19 19 19 19 18 18 18 18 18 18 18 18 18 18 18 18 18 17 17 18 18 18 18 18 18 18 18 17 17 17 17 17 17 17 17 16 17 16 16 16
19 19 19 19 19 19 18 18 18 18 18 18 18 18 18 18 18 18 18 18 17 17 17 18 18 18 18 18 18 17 17 17 17 17 17 17 17 16 16 16 16 16 16
19 19 19 19 18 18 18 18 18 18 18 18 18 18 18 18 18 18 17 17 17 17 17 17 17 17 17 17 17 17 17 17 17 17 17 16 16 16 16 16 16 16 16
19 19 19 19 18 18 18 18 18 18 18 18 18 18 18 17 17 17 17 17 17 17 17 17 17 17 17 17 17 17 17 17 17 17 16 16 16 16 16 16 16 16 16
19 19 18 18 18 18 18 18 18 18 18 18 18 17 17 17 17 17 17 17 17 17 17 17 17 17 17 17 17 17 17 17 16 16 16 16 16 16 16 16 16 16 15
19 19 18 18 18 18 18 18 18 17 17 17 17 17 17 17 17 17 17 17 17 17 17 17 17 17 16 16 16 16 16 16 16 16 16 16 16 16 16 16 15 15 15
19 19 18 18 18 18 18 17 17 17 17 17 17 17 17 17 17 17 17 17 16 16 16 16 16 16 16 16 16 16 16 16 16 16 16 16 16 16 16 15 15 15 15
18 18 18 18 18 17 17 17 17 17 17 17 17 17 17 16 16 16 16 16 16 16 16 16 16 16 16 16 16 16 16 16 16 16 15 15 15 15 15 15 15 15 15
18 18 18 17 17 17 17 17 17 17 17 17 17 16 16 16 16 16 16 16 16 16 16 16 16 16 16 16 15 15 15 15 15 15 15 15 15 15 15 15 15 15 15
18 17 17 17 17 17 17 17 16 16 16 16 16 16 16 16 16 16 16 16 16 15 15 15 15 15 15 15 15 15 15 15 15 15 14 15 15 15 15 15 15 15 15
17 17 17 17 17 17 17 16 16 16 16 16 16 16 16 16 16 16 16 15 15 15 15 15 15 15 15 15 14 14 14 14 14 14 14 14 14 14 14 14 14 14 14
17 17 16 16 16 17 16 16 16 16 16 16 16 16 16 15 15 15 15 15 15 15 15 14 14 14 14 14 14 14 14 14 14 14 14 14 14 14 14 14 14 14 14
16 16 16 16 16 16 16 16 16 15 15 15 15 15 15 15 15 15 15 15 14 15 14 14 14 14 14 14 14 13 13 13 13 13 13 13 13 13 13 13 13 13 13
Wind_Speed
4 4 4 5 5 5 5 4 4 4 4 5 5 6 5 6 7 8 9 13 15 15 15 14 14 14 13 13 13 13 12 12 12 12 12 12 12 12 12 12 11 11 11
5 4 3 3 4 5 5 5 5 4 3 3 3 4 5 6 7 8 9 12 15 16 16 15 15 14 13 13 13 13 13 12 12 12 12 11 12 12 12 12 12 12 12
6 5 3 3 4 5 5 4 3 2 2 2 2 3 3 5 6 7 9 10 11 14 16 15 15 14 14 14 14 14 14 14 13 13 12 12 12 12 12 11 11 12 12
7 5 3 3 4 4 3 2 2 1 2 2 2 3 2 3 5 6 7 8 9 10 12 15 15 15 15 14 14 14 14 14 14 14 14 14 13 13 12 12 12 12 12
8 5 3 3 4 2 1 2 1 2 1 2 3 3 2 2 3 4 5 7 9 10 11 12 14 16 15 15 15 15 14 14 14 14 14 14 14 13 13 13 13 13 13
8 6 4 3 3 2 1 1 2 1 2 2 2 2 2 3 2 3 4 5 7 9 10 10 10 12 15 16 15 15 15 15 15 14 15 15 15 15 14 14 14 14 14
9 6 4 3 3 3 3 3 2 1 1 1 1 2 3 3 2 3 3 3 4 7 7 9 9 9 10 13 15 15 15 15 15 15 15 16 15 15 15 14 14 14 14
9 7 5 4 4 3 3 3 2 1 1 1 2 1 2 4 3 3 2 3 3 3 4 7 8 9 10 9 11 13 14 15 15 16 15 15 15 15 15 15 15 14 15
9 7 6 5 4 4 4 4 4 4 3 2 2 3 2 2 3 3 3 2 2 2 3 4 6 9 10 10 10 11 12 13 14 15 15 14 14 14 14 14 14 14 15
7 8 6 6 5 4 5 4 4 3 3 2 2 2 3 4 2 2 3 3 2 2 3 3 4 6 9 9 10 10 12 12 13 13 13 14 14 13 13 13 13 13 14
6 7 6 6 5 4 5 4 4 4 3 4 3 2 1 1 2 2 3 4 3 2 3 4 3 4 7 9 10 11 12 13 13 13 13 13 13 13 12 12 12 12 12
4 5 6 6 5 5 5 4 4 4 4 4 3 3 3 2 3 3 4 4 3 3 2 2 3 3 6 7 10 12 13 13 13 13 14 14 13 12 12 11 11 11 10
4 6 6 5 5 5 5 5 4 4 4 4 4 4 4 4 3 3 3 3 3 3 2 2 3 3 5 6 7 10 11 12 12 13 14 13 13 12 11 10 10 10 10
6 6 6 6 6 6 6 5 4 4 3 4 4 4 3 4 3 4 4 3 2 2 2 3 2 2 3 5 7 9 9 11 12 12 12 12 12 11 11 10 10 10 10
6 6 6 6 6 6 6 5 4 5 4 4 4 4 3 3 3 3 3 4 4 3 3 4 2 3 3 3 5 5 7 9 11 12 12 11 11 11 10 10 10 10 10
6 6 6 6 6 5 5 5 4 4 4 4 4 4 4 3 3 3 3 3 4 5 4 4 4 3 3 2 4 5 6 8 9 10 10 11 11 11 11 10 10 10 10
6 6 7 7 7 6 6 5 6 5 6 5 4 4 5 4 3 3 3 3 3 4 4 4 3 2 2 3 3 3 5 5 6 8 9 10 10 10 10 10 10 10 10
5 6 6 6 6 6 6 6 7 6 6 6 5 5 5 4 4 3 3 3 3 4 4 4 3 2 3 4 3 3 3 4 5 7 8 10 10 10 10 10 10 10 11
6 5 5 6 6 6 6 6 7 6 6 6 6 6 6 4 5 3 3 3 3 3 3 3 3 2 2 2 1 2 2 2 4 5 7 8 9 9 10 10 10 11 11
6 6 5 6 6 6 6 6 6 6 6 6 5 5 5 5 6 5 4 4 3 2 2 2 3 2 2 2 1 2 2 3 3 3 4 6 7 9 10 10 10 11 11
7 6 5 6 6 6 6 7 6 6 6 5 4 4 5 5 6 5 4 3 3 2 2 2 2 2 2 1 2 2 3 3 3 3 2 4 4 5 7 9 10 11 12
6 5 5 6 6 6 7 9 8 6 6 6 5 5 5 5 5 6 7 6 6 5 4 3 3 4 5 4 3 3 2 1 3 2 2 4 3 4 5 7 9 11 11
6 5 5 5 6 7 9 8 8 6 5 6 6 5 5 4 4 3 4 4 4 6 7 5 5 6 5 5 4 3 3 4 5 4 2 4 3 5 6 8 10 11 11
6 6 6 6 5 6 8 7 7 5 5 5 6 5 5 4 4 4 3 2 3 3 4 4 5 6 6 5 5 5 5 4 4 3 3 4 3 4 5 5 9 11 11
6 5 5 5 6 6 8 8 6 3 3 4 4 4 5 4 4 5 3 3 3 5 5 5 6 7 8 7 5 3 2 2 4 4 3 3 3 3 3 4 6 9 10
5 5 5 5 6 5 7 8 6 3 3 2 2 3 4 5 5 4 4 4 4 5 4 5 5 5 5 5 5 5 5 4 3 3 3 3 2 1 2 3 3 4 5
Wind_Direction
178 179 194 198 207 210 209 214 226 233 240 249 246 232 219 207 200 199 203 203 202 202 202 204 205 206 208 210 211 213 215 216 214 215 217 218 218 218 220 221 222 227 228
177 176 190 197 207 210 212 214 221 225 233 244 256 230 210 211 208 205 206 207 208 210 211 212 213 212 213 215 215 216 218 218 216 216 218 220 222 224 225 226 228 229 231
177 173 181 204 217 214 209 214 226 225 238 246 257 243 217 219 213 212 209 210 213 217 217 216 216 215 215 217 218 218 220 220 219 218 218 219 222 225 226 228 232 233 235
181 172 179 205 215 209 196 191 211 229 271 272 265 263 237 225 222 218 207 207 212 216 219 220 220 221 220 219 221 220 219 219 219 219 220 222 225 227 228 229 232 235 236
189 181 188 205 202 190 196 215 188 187 238 267 269 267 260 241 223 220 207 207 212 216 219 225 227 226 225 225 225 224 222 220 221 223 225 227 228 229 230 231 234 237 239
194 184 189 198 186 179 208 212 207 211 220 240 272 294 282 263 228 215 219 216 216 219 219 221 224 230 230 229 229 229 227 225 224 226 228 229 231 231 233 235 238 240 241
190 182 190 190 186 191 205 201 192 212 246 184 38 340 326 317 267 245 225 216 223 226 221 219 218 224 228 229 231 231 231 230 229 229 231 233 234 234 234 237 239 241 242
194 191 185 194 195 191 200 200 180 173 242 157 141 75 346 337 323 280 262 234 231 217 218 217 210 211 215 217 223 226 230 235 236 234 233 236 238 239 239 239 240 242 244
196 195 191 189 192 190 201 207 192 184 210 237 173 156 161 245 299 315 294 261 230 210 216 208 207 212 213 212 216 220 229 236 238 238 236 236 238 238 238 241 242 243 245
196 197 195 191 195 198 204 211 197 192 186 222 235 202 191 179 188 302 316 302 278 231 223 218 214 215 215 209 212 219 227 233 236 238 239 240 239 237 238 243 245 246 247
200 197 196 189 194 200 207 211 202 198 192 201 206 207 209 206 191 194 270 303 314 279 241 225 211 207 209 206 209 218 226 230 234 236 241 243 241 238 240 244 246 247 249
218 209 203 194 194 197 206 210 207 203 207 207 205 195 188 195 209 195 230 261 278 282 275 251 228 213 212 207 213 218 223 230 233 235 238 242 241 240 241 243 246 247 248
220 220 209 200 201 204 205 201 201 211 210 209 211 212 210 213 199 188 197 239 262 278 292 282 249 219 220 215 218 222 225 227 230 234 238 239 237 238 241 242 244 244 244
217 215 204 204 205 202 204 195 197 213 213 216 226 222 225 230 209 201 195 195 250 292 284 267 274 237 228 222 228 222 223 225 226 230 234 236 237 237 238 237 239 239 240
212 205 203 203 206 204 200 193 206 216 216 222 230 231 233 240 229 220 207 191 191 242 269 256 254 249 236 237 233 217 224 230 229 232 234 236 235 235 236 235 235 234 235
209 202 206 206 207 206 203 198 209 217 217 231 228 231 238 242 244 231 220 213 196 200 237 247 238 242 227 242 236 231 238 241 238 236 236 237 238 238 237 236 235 235 234
204 206 209 205 204 207 207 209 219 216 219 231 234 232 239 239 245 246 232 221 212 194 230 261 246 245 224 235 242 241 244 243 242 236 237 241 240 239 239 238 236 235 233
204 205 202 202 207 209 208 212 225 225 221 228 232 231 242 243 242 246 236 234 228 213 212 253 263 241 239 235 230 234 240 246 245 241 239 241 241 243 242 241 239 236 232
202 202 199 204 212 215 216 219 219 221 223 226 226 226 234 230 244 245 239 242 246 243 213 223 256 245 246 241 235 253 252 258 251 251 244 243 244 245 245 243 243 240 237
201 205 207 211 216 219 221 220 213 215 222 226 224 225 231 226 233 234 242 241 241 243 234 231 253 259 250 250 198 246 273 258 256 257 253 251 250 250 249 247 246 243 240
207 206 209 218 221 220 222 214 215 219 224 231 235 238 238 235 237 231 232 224 217 225 236 240 254 263 256 239 235 232 248 265 263 239 246 253 245 252 258 251 245 243 239
209 207 215 219 223 229 226 218 214 218 221 223 235 247 247 248 247 236 230 224 214 217 224 229 247 250 255 243 235 229 229 257 277 254 217 255 227 242 250 247 245 240 237
203 205 218 222 225 230 227 223 219 214 218 222 227 235 248 252 239 235 240 246 246 239 223 214 233 245 245 237 224 231 227 226 241 243 208 254 239 243 252 254 247 236 233
207 211 216 222 224 232 225 221 219 217 222 229 228 222 228 235 237 212 219 241 262 262 243 231 230 244 246 238 221 222 226 240 261 252 199 235 247 246 253 254 246 236 236
207 214 217 218 224 239 228 216 206 208 227 245 247 231 214 215 223 199 192 229 270 282 277 257 257 257 255 244 222 208 226 234 267 262 214 209 243 254 253 253 250 237 234
212 215 225 224 222 231 230 214 201 201 224 245 262 239 218 211 214 197 196 213 247 267 284 297 294 288 275 260 233 212 212 222 241 259 233 204 233 231 272 261 248 247 241
Height
1564 1565 1565 1566 1567 1567 1568 1568 1569 1569 1570 1570 1570 1570 1570 1570 1571 1571 1571 1571 1571 1571 1571 1571 1571 1571 1571 1572 1572 1572 1572 1572 1573 1573 1573 1573 1574 1574 1575 1575 1575 1575 1576
1564 1565 1565 1566 1567 1567 1568 1568 1568 1569 1569 1569 1569 1569 1569 1569 1570 1570 1570 1570 1570 1570 1570 1570 1570 1570 1570 1570 1570 1570 1571 1571 1571 1571 1571 1572 1572 1573 1573 1573 1573 1574 1574
1564 1564 1565 1565 1566 1566 1567 1567 1568 1568 1568 1568 1568 1568 1568 1568 1569 1569 1568 1568 1568 1568 1569 1569 1569 1569 1569 1569 1569 1569 1569 1569 1569 1569 1570 1570 1570 1571 1571 1571 1571 1571 1572
1563 1564 1564 1565 1565 1566 1566 1566 1567 1567 1567 1567 1567 1567 1567 1567 1567 1567 1567 1567 1567 1567 1567 1567 1567 1567 1567 1567 1567 1567 1567 1567 1567 1567 1568 1568 1568 1568 1568 1569 1569 1569 1569
1562 1563 1563 1564 1564 1565 1565 1565 1566 1566 1566 1566 1566 1566 1566 1565 1565 1565 1565 1565 1565 1565 1565 1565 1565 1565 1565 1565 1565 1565 1565 1565 1565 1565 1566 1566 1566 1566 1566 1566 1566 1566 1566
1561 1562 1562 1563 1563 1563 1564 1564 1564 1565 1565 1565 1565 1565 1564 1564 1563 1563 1563 1563 1564 1564 1564 1564 1563 1563 1563 1563 1563 1563 1563 1563 1563 1563 1563 1563 1563 1563 1563 1563 1563 1563 1563
1560 1561 1561 1561 1562 1562 1562 1563 1563 1563 1563 1564 1564 1563 1563 1562 1562 1561 1562 1562 1562 1562 1562 1562 1561 1561 1561 1560 1561 1561 1561 1561 1561 1560 1560 1561 1560 1560 1560 1560 1560 1560 1560
1558 1559 1559 1560 1560 1561 1561 1561 1561 1561 1562 1562 1563 1562 1561 1562 1560 1560 1560 1560 1560 1560 1560 1560 1559 1559 1559 1558 1558 1558 1558 1558 1558 1558 1558 1558 1558 1557 1557 1557 1557 1557 1557
1556 1557 1558 1558 1558 1559 1559 1559 1560 1560 1560 1561 1561 1562 1561 1560 1559 1559 1559 1559 1559 1558 1558 1558 1557 1557 1556 1556 1556 1556 1555 1555 1555 1555 1555 1555 1555 1555 1554 1554 1554 1553 1553
1555 1555 1556 1556 1557 1557 1557 1557 1558 1558 1558 1559 1559 1559 1560 1559 1559 1558 1558 1557 1557 1557 1556 1556 1556 1555 1554 1554 1553 1553 1553 1553 1553 1553 1552 1552 1552 1552 1551 1551 1551 1550 1550
1552 1553 1554 1554 1554 1555 1555 1555 1556 1556 1556 1557 1557 1557 1557 1557 1557 1557 1556 1555 1555 1555 1554 1554 1553 1553 1552 1551 1551 1550 1550 1550 1550 1550 1550 1550 1549 1549 1549 1548 1548 1547 1547
1550 1550 1551 1552 1552 1552 1553 1553 1553 1553 1554 1554 1555 1555 1555 1555 1554 1554 1554 1553 1552 1552 1552 1551 1551 1550 1550 1549 1549 1548 1547 1547 1547 1547 1547 1547 1546 1546 1546 1545 1545 1544 1544
1547 1547 1548 1549 1549 1550 1550 1550 1550 1551 1551 1551 1552 1552 1552 1552 1552 1552 1552 1551 1550 1550 1549 1549 1548 1548 1547 1547 1546 1546 1545 1545 1544 1544 1544 1544 1544 1543 1543 1542 1542 1541 1541
1544 1545 1546 1546 1547 1547 1548 1548 1548 1548 1548 1548 1549 1549 1549 1549 1549 1549 1549 1548 1547 1547 1546 1546 1546 1545 1545 1544 1544 1543 1543 1542 1542 1541 1541 1541 1540 1540 1540 1539 1538 1538 1537
1542 1542 1543 1543 1544 1545 1545 1545 1545 1545 1545 1546 1546 1546 1546 1546 1546 1546 1546 1546 1546 1544 1543 1543 1543 1543 1542 1542 1541 1541 1540 1540 1539 1539 1538 1538 1537 1537 1536 1536 1535 1535 1534
1539 1539 1540 1540 1541 1542 1542 1542 1542 1542 1542 1543 1543 1543 1543 1543 1543 1543 1543 1542 1542 1542 1540 1539 1540 1540 1540 1539 1539 1538 1538 1537 1536 1536 1536 1535 1534 1534 1533 1532 1532 1531 1531
1535 1536 1536 1537 1537 1538 1539 1539 1539 1539 1539 1539 1540 1540 1539 1539 1539 1539 1539 1539 1538 1538 1537 1536 1536 1537 1537 1536 1536 1535 1535 1534 1534 1533 1533 1532 1531 1531 1530 1529 1529 1528 1528
1531 1532 1532 1533 1534 1534 1535 1535 1536 1536 1536 1536 1536 1536 1536 1536 1535 1535 1535 1535 1535 1535 1534 1532 1532 1533 1533 1533 1533 1532 1532 1531 1531 1530 1529 1529 1528 1527 1527 1526 1525 1525 1524
1527 1528 1529 1530 1530 1531 1531 1532 1532 1533 1532 1532 1533 1533 1532 1532 1532 1532 1531 1531 1531 1531 1531 1530 1529 1529 1529 1529 1529 1528 1528 1528 1527 1527 1526 1525 1525 1524 1523 1523 1522 1521 1521
1523 1524 1525 1526 1526 1527 1528 1528 1528 1529 1529 1529 1529 1529 1529 1528 1528 1528 1528 1527 1527 1527 1527 1526 1525 1525 1525 1525 1524 1524 1523 1523 1523 1523 1522 1521 1521 1520 1520 1519 1518 1518 1517
1519 1520 1521 1521 1522 1523 1523 1524 1524 1525 1525 1525 1525 1525 1525 1524 1524 1524 1524 1524 1523 1523 1522 1522 1521 1521 1521 1520 1520 1519 1519 1519 1518 1518 1517 1517 1516 1516 1515 1515 1514 1514 1513
1514 1515 1516 1517 1517 1518 1519 1520 1520 1521 1521 1521 1521 1521 1521 1521 1520 1520 1520 1520 1519 1519 1518 1517 1517 1516 1516 1516 1515 1515 1514 1514 1513 1514 1513 1512 1512 1511 1511 1510 1510 1509 1509
1509 1510 1511 1512 1513 1514 1515 1516 1516 1517 1517 1517 1516 1517 1517 1516 1516 1516 1516 1515 1515 1515 1514 1514 1513 1512 1512 1511 1511 1510 1510 1509 1509 1509 1509 1507 1507 1506 1506 1506 1505 1505 1504
1505 1505 1506 1508 1509 1510 1510 1511 1512 1512 1512 1512 1512 1512 1512 1512 1512 1512 1512 1511 1510 1510 1510 1509 1508 1508 1508 1507 1507 1507 1506 1506 1505 1505 1505 1503 1502 1501 1501 1501 1500 1500 1499
1499 1500 1502 1503 1504 1505 1506 1506 1507 1507 1507 1507 1507 1507 1507 1508 1508 1508 1507 1506 1506 1505 1505 1504 1504 1503 1503 1503 1502 1502 1501 1501 1499 1499 1500 1499 1497 1496 1496 1495 1495 1495 1495
1495 1496 1497 1499 1499 1500 1501 1502 1502 1503 1502 1503 1503 1503 1503 1503 1503 1503 1503 1502 1501 1500 1500 1499 1499 1498 1498 1498 1498 1497 1497 1496 1495 1494 1494 1494 1493 1492 1491 1490 1490 1490 1490